CW1852 Weather Reports


time (UTC)temp
C
wind
direction
speed
KPH
gust
KPH
rain 1hr
cm
rain 24hr
cm
rain mn
cm
humidity
%
barometer
mb
20260901030202 12 255 0.0 0.0 0.00 0.03 0.03 93 1017.0
20260901025203 12 255 0.0 0.0 0.00 0.03 0.03 93 1017.0
20260901024202 12 255 0.0 0.0 0.00 0.03 0.03 92 1017.2
20260901023203 12 255 0.0 0.0 0.00 0.03 0.03 92 1017.2
20260901022203 12 255 0.0 0.0 0.00 0.03 0.03 91 1017.1
20260901021202 12 254 0.0 1.6 0.00 0.03 0.03 91 1017.0
20260901020203 13 254 0.0 3.2 0.00 0.03 0.03 91 1017.0
20260901015203 13 254 0.0 1.6 0.00 0.03 0.03 91 1016.9
20260901014203 12 254 0.0 1.6 0.00 0.03 0.03 90 1016.9
20260901013203 13 255 0.0 0.0 0.00 0.03 0.03 90 1016.9
20260901012203 13 255 0.0 0.0 0.00 0.03 0.03 89 1017.0
20260901011203 13 255 0.0 1.6 0.00 0.03 0.03 89 1017.0
20260901010203 13 255 0.0 1.6 0.00 0.03 0.03 88 1016.9
20260901005203 13 255 0.0 1.6 0.00 0.03 0.03 87 1016.9
20260901004203 13 254 0.0 1.6 0.00 0.03 0.03 87 1017.0
20260901003223 13 255 0.0 0.0 0.00 0.03 0.03 85 1016.9
20260901002224 14 255 0.0 0.0 0.00 0.03 0.03 84 1016.8
20260901001203 15 255 0.0 3.2 0.00 0.03 0.03 82 1016.8
20260901000225 15 254 0.0 6.4 0.00 0.03 0.03 81 1016.7
20260831235245 15 254 3.2 11.3 0.00 0.03 0.03 81 1016.8
20260831234245 16 253 4.8 11.3 0.00 0.03 0.03 81 1016.9
20260831233202 16 235 4.8 8.0 0.00 0.03 0.03 80 1016.9
20260831232203 16 235 0.0 4.8 0.00 0.03 0.03 79 1016.7
20260831231203 16 235 1.6 6.4 0.00 0.03 0.03 79 1016.8
20260831230203 16 220 1.6 6.4 0.00 0.03 0.03 79 1016.7
20260831224202 17 152 1.6 11.3 0.00 0.03 0.03 78 1016.6
20260831223203 17 281 4.8 11.3 0.00 0.03 0.03 77 1016.6
20260831222203 17 165 3.2 14.5 0.00 0.03 0.03 77 1016.6
20260831221203 17 174 3.2 11.3 0.00 0.03 0.03 76 1016.8
20260831220203 18 197 4.8 12.9 0.00 0.03 0.03 74 1016.9
20260831215203 18 197 4.8 17.7 0.00 0.03 0.03 72 1016.8
20260831214203 18 185 8.0 14.5 0.00 0.03 0.03 73 1017.0
20260831213203 18 161 3.2 14.5 0.00 0.03 0.03 72 1016.9
20260831212223 19 187 11.3 20.9 0.00 0.03 0.03 70 1017.2
20260831211203 20 203 8.0 19.3 0.00 0.03 0.03 68 1017.1
20260831210204 20 174 6.4 16.1 0.00 0.03 0.03 65 1017.1
20260831205245 20 196 6.4 20.9 0.00 0.03 0.03 64 1017.0
20260831204203 21 206 4.8 20.9 0.00 0.03 0.03 57 1017.0
20260831203203 22 188 9.7 16.1 0.00 0.03 0.03 49 1016.8
20260831202223 22 186 6.4 14.5 0.00 0.03 0.03 48 1016.9
20260831201224 22 184 6.4 16.1 0.00 0.03 0.03 48 1016.9
20260831200203 22 193 6.4 16.1 0.00 0.03 0.03 47 1017.0
20260831195202 22 196 6.4 17.7 0.00 0.03 0.03 48 1017.0
20260831194203 22 183 8.0 16.1 0.00 0.03 0.03 49 1017.1
20260831193202 22 185 8.0 14.5 0.00 0.03 0.03 52 1017.0
20260831192224 22 176 9.7 19.3 0.00 0.03 0.03 54 1017.0
20260831190203 22 169 6.4 16.1 0.00 0.03 0.03 59 1017.2
20260831185203 23 174 4.8 11.3 0.00 0.03 0.03 48 1017.2
20260831184203 24 184 8.0 11.3 0.00 0.03 0.03 47 1017.2
20260831183202 23 179 8.0 14.5 0.00 0.03 0.03 50 1017.3
20260831182225 23 194 3.2 16.1 0.00 0.03 0.03 50 1017.4
20260831181203 23 176 6.4 16.1 0.00 0.03 0.03 50 1017.6
20260831180202 23 184 8.0 14.5 0.00 0.03 0.03 58 1017.6
20260831175203 23 176 3.2 8.0 0.00 0.03 0.03 55 1017.6
20260831174203 23 188 6.4 11.3 0.00 0.03 0.03 51 1017.8
20260831173203 23 159 3.2 9.7 0.00 0.03 0.03 49 1017.6
20260831172224 23 195 3.2 14.5 0.00 0.03 0.03 51 1017.6
20260831171202 23 188 6.4 14.5 0.00 0.03 0.03 51 1017.7
20260831170203 22 289 3.2 12.9 0.00 0.03 0.03 49 1017.9
20260831165202 23 295 4.8 12.9 0.00 0.03 0.03 46 1018.0
20260831164203 22 332 3.2 16.1 0.00 0.03 0.03 47 1018.0
20260831163225 23 339 1.6 6.4 0.00 0.03 0.03 48 1018.2
20260831162202 22 330 1.6 14.5 0.00 0.03 0.03 47 1018.4
20260831161224 21 61 4.8 9.7 0.00 0.03 0.03 52 1018.3
20260831160203 22 41 3.2 14.5 0.00 0.03 0.03 52 1018.4
20260831155203 22 55 3.2 11.3 0.00 0.03 0.03 52 1018.4
20260831154224 21 20 3.2 11.3 0.00 0.03 0.03 57 1018.4
20260831153202 21 338 3.2 16.1 0.00 0.03 0.03 56 1018.5
20260831152204 21 291 4.8 12.9 0.00 0.03 0.03 58 1018.6
20260831151224 21 273 3.2 9.7 0.00 0.03 0.03 60 1018.7
20260831150224 21 283 1.6 12.9 0.00 0.03 0.03 59 1018.8
20260831145202 20 75 3.2 11.3 0.00 0.03 0.03 65 1018.9
20260831144203 19 321 4.8 12.9 0.00 0.03 0.03 63 1018.8
20260831143203 20 286 4.8 12.9 0.00 0.03 0.03 63 1019.0
20260831142203 19 320 4.8 8.0 0.00 0.03 0.03 67 1019.0
20260831141203 19 40 3.2 9.7 0.00 0.03 0.03 68 1019.1
20260831140202 18 285 6.4 12.9 0.00 0.03 0.03 68 1019.0
20260831135224 18 283 4.8 17.7 0.00 0.03 0.03 71 1018.9
20260831133202 17 305 4.8 9.7 0.00 0.03 0.03 75 1018.5
20260831132203 16 320 3.2 14.5 0.00 0.03 0.03 77 1018.4
20260831131203 16 340 3.2 14.5 0.00 0.03 0.03 80 1018.4
20260831130224 16 326 3.2 14.5 0.00 0.03 0.03 80 1018.3
20260831125203 15 325 6.4 16.1 0.00 0.03 0.03 82 1018.3
20260831124202 15 317 3.2 9.7 0.00 0.03 0.03 85 1018.2
20260831123224 15 316 3.2 12.9 0.00 0.03 0.03 87 1018.2
20260831122202 15 315 1.6 9.7 0.00 0.03 0.03 88 1018.3
20260831121203 14 315 1.6 8.0 0.00 0.03 0.03 90 1018.4
20260831120202 14 314 3.2 9.7 0.00 0.03 0.03 91 1018.3
20260831115203 13 314 3.2 8.0 0.00 0.03 0.03 92 1018.5
20260831114203 13 314 3.2 9.7 0.00 0.03 0.03 94 1018.5
20260831113202 13 313 3.2 8.0 0.00 0.03 0.03 94 1018.4
20260831112203 12 313 1.6 8.0 0.00 0.03 0.03 95 1018.5
20260831111203 12 313 1.6 6.4 0.00 0.03 0.03 95 1018.3
20260831110203 12 313 3.2 8.0 0.00 0.03 0.03 95 1018.2
20260831105203 12 313 1.6 8.0 0.00 0.03 0.03 95 1018.0
20260831104202 11 313 1.6 4.8 0.00 0.03 0.03 95 1018.0
20260831103203 11 313 3.2 6.4 0.00 0.03 0.03 95 1017.9
20260831102203 11 313 1.6 4.8 0.00 0.03 0.03 95 1017.7
20260831101202 11 313 1.6 4.8 0.00 0.03 0.03 95 1017.6
20260831100203 11 313 1.6 4.8 0.00 0.03 0.03 95 1017.6
20260831095202 11 313 1.6 4.8 0.00 0.03 0.03 95 1017.5
20260831094203 12 313 1.6 6.4 0.00 0.03 0.03 95 1017.2
20260831093202 12 313 3.2 6.4 0.00 0.03 0.03 95 1017.0
20260831092203 12 313 3.2 6.4 0.00 0.03 0.03 95 1016.8
20260831091202 12 313 3.2 8.0 0.00 0.03 0.03 95 1016.7
20260831090203 12 313 1.6 6.4 0.00 0.03 0.03 95 1016.5
20260831085202 12 313 1.6 8.0 0.00 0.03 0.03 95 1016.3
20260831084203 12 313 0.0 4.8 0.00 0.03 0.03 94 1016.2
20260831083202 12 314 1.6 4.8 0.00 0.03 0.03 95 1016.2
20260831082203 12 314 0.0 3.2 0.00 0.03 0.03 95 1016.1
20260831081224 12 314 0.0 1.6 0.00 0.03 0.03 95 1016.2
20260831080202 13 313 0.0 4.8 0.00 0.03 0.03 95 1016.2
20260831075203 13 314 1.6 6.4 0.00 0.03 0.03 95 1016.3
20260831074224 13 314 3.2 4.8 0.00 0.03 0.03 94 1016.3
20260831073203 13 314 1.6 8.0 0.00 0.03 0.03 94 1016.2
20260831072203 13 314 1.6 6.4 0.00 0.03 0.03 95 1016.2
20260831071202 13 313 4.8 8.0 0.00 0.03 0.03 95 1016.1
20260831070203 13 313 3.2 8.0 0.00 0.03 0.03 94 1016.1
20260831065203 13 313 3.2 8.0 0.00 0.03 0.03 94 1015.9
20260831064202 13 324 1.6 8.0 0.00 0.03 0.03 94 1015.9
20260831063203 13 324 1.6 8.0 0.00 0.03 0.03 94 1015.9
20260831062202 13 324 1.6 6.4 0.00 0.03 0.03 94 1015.7
20260831061203 14 324 3.2 9.7 0.00 0.03 0.03 94 1015.7
20260831060202 14 324 3.2 9.7 0.00 0.03 0.03 94 1015.5
20260831055224 14 322 0.0 8.0 0.00 0.03 0.03 94 1015.4
20260831054202 14 322 3.2 8.0 0.00 0.03 0.03 94 1015.3
20260831053203 14 322 0.0 6.4 0.00 0.03 0.03 94 1015.3
20260831052245 14 322 1.6 6.4 0.00 0.03 0.03 94 1015.3
20260831051202 14 322 0.0 4.8 0.00 0.03 0.03 94 1015.2
20260831050203 14 322 0.0 4.8 0.00 0.03 0.03 94 1015.0
20260831045202 14 322 1.6 4.8 0.03 0.03 0.03 94 1015.1
20260831044203 15 322 0.0 3.2 0.03 0.03 0.03 94 1015.0
20260831043202 15 322 1.6 4.8 0.00 0.00 0.00 94 1014.9
20260831042203 15 322 0.0 3.2 0.00 0.00 0.00 94 1014.9
20260831041202 15 322 0.0 4.8 0.00 0.00 0.00 94 1014.9
20260831040203 15 323 0.0 3.2 0.00 0.00 0.00 93 1014.7
20260831035224 15 323 0.0 4.8 0.00 0.00 0.00 93 1014.7
20260831034203 15 322 0.0 4.8 0.00 0.00 0.00 93 1014.6
20260831033203 15 322 3.2 6.4 0.00 0.00 0.00 93 1014.7
20260831032202 15 322 1.6 4.8 0.00 0.00 0.00 93 1014.4
20260831031203 15 322 1.6 8.0 0.00 0.00 0.00 92 1014.4